iso_date,epoch_date,Year,Hour,Min,DOY,POS_DOY,Lat,Lon,BP,Ts,Ta,has_bp,has_ts,has_ta,BuoyID,Buoy_Type,Buoy_Owner,Logistics,Hemisphere
2018-03-04T13:03:21Z,1520168602,2018,13,3,63.544,63.544,-70.3782,-36.1346,994.7,5.61,-999.0,yes,yes,no,300234063800040,BD2GI,AOML,USN_SURVEY,South
2018-03-04T13:59:31Z,1520171971,2018,14,0,63.583,63.583,-70.2718,-36.4756,994.6,-4.42,-999.0,yes,yes,no,300234063800040,BD2GI,AOML,USN_SURVEY,South
2018-03-04T15:00:00Z,1520175600,2018,15,0,63.625,63.625,-70.16,-36.8302,994.1,-3.61,-999.0,yes,yes,no,300234063800040,BD2GI,AOML,USN_SURVEY,South
2018-03-04T16:00:28Z,1520179229,2018,16,0,63.667,63.667,-70.0496,-37.1772,993.7,-3.46,-999.0,yes,yes,no,300234063800040,BD2GI,AOML,USN_SURVEY,South
2018-03-04T16:59:31Z,1520182771,2018,17,0,63.708,63.708,-69.9426,-37.5118,993.9,-4.73,-999.0,yes,yes,no,300234063800040,BD2GI,AOML,USN_SURVEY,South
2018-03-04T18:00:00Z,1520186400,2018,18,0,63.75,63.75,-69.8316,-37.8616,993.6,-4.77,-999.0,yes,yes,no,300234063800040,BD2GI,AOML,USN_SURVEY,South
2018-03-04T19:00:28Z,1520190029,2018,19,0,63.792,63.792,-69.7188,-38.2124,993.1,-4.27,-999.0,yes,yes,no,300234063800040,BD2GI,AOML,USN_SURVEY,South
2018-03-04T19:59:31Z,1520193571,2018,20,0,63.833,63.833,-69.608,-38.5534,992.7,-4.14,-999.0,yes,yes,no,300234063800040,BD2GI,AOML,USN_SURVEY,South
2018-03-04T21:00:00Z,1520197200,2018,21,0,63.875,63.875,-69.4892,-38.8826,992.7,-5.0,-999.0,yes,yes,no,300234063800040,BD2GI,AOML,USN_SURVEY,South
2018-03-04T22:00:28Z,1520200829,2018,22,0,63.917,63.917,-69.3586,-39.1776,993.2,-5.0,-999.0,yes,yes,no,300234063800040,BD2GI,AOML,USN_SURVEY,South
2018-03-04T22:59:31Z,1520204371,2018,23,0,63.958,63.958,-69.227,-39.4738,993.2,-5.0,-999.0,yes,yes,no,300234063800040,BD2GI,AOML,USN_SURVEY,South
2018-03-05T00:00:00Z,1520208000,2018,0,0,64.0,64.0,-69.0922,-39.774,993.1,-5.0,-999.0,yes,yes,no,300234063800040,BD2GI,AOML,USN_SURVEY,South
2018-03-05T01:00:28Z,1520211629,2018,1,0,64.042,64.042,-68.929,-40.1366,993.0,-5.0,-999.0,yes,yes,no,300234063800040,BD2GI,AOML,USN_SURVEY,South
2018-03-05T01:59:31Z,1520215171,2018,2,0,64.083,64.083,-68.7614,-40.5044,992.5,-4.89,-999.0,yes,yes,no,300234063800040,BD2GI,AOML,USN_SURVEY,South
2018-03-05T03:00:00Z,1520218800,2018,3,0,64.125,64.125,-68.625,-40.8024,992.1,-3.72,-999.0,yes,yes,no,300234063800040,BD2GI,AOML,USN_SURVEY,South
2018-03-05T04:00:28Z,1520222429,2018,4,0,64.167,64.167,-68.495,-41.085,991.3,-2.89,-999.0,yes,yes,no,300234063800040,BD2GI,AOML,USN_SURVEY,South
2018-03-05T04:59:31Z,1520225971,2018,5,0,64.208,64.208,-68.366,-41.3632,990.5,-2.59,-999.0,yes,yes,no,300234063800040,BD2GI,AOML,USN_SURVEY,South
2018-03-05T06:00:00Z,1520229600,2018,6,0,64.25,64.25,-68.2398,-41.6346,990.2,-1.97,-999.0,yes,yes,no,300234063800040,BD2GI,AOML,USN_SURVEY,South
2018-03-05T07:00:28Z,1520233229,2018,7,0,64.292,64.292,-68.11,-41.911,989.6,-0.98,-999.0,yes,yes,no,300234063800040,BD2GI,AOML,USN_SURVEY,South
2018-03-05T07:59:31Z,1520236771,2018,8,0,64.333,64.333,-67.9824,-42.1826,989.5,-0.95,-999.0,yes,yes,no,300234063800040,BD2GI,AOML,USN_SURVEY,South
2018-03-05T09:00:00Z,1520240400,2018,9,0,64.375,64.375,-67.8602,-42.4388,989.3,-1.49,-999.0,yes,yes,no,300234063800040,BD2GI,AOML,USN_SURVEY,South
2018-03-05T10:00:28Z,1520244029,2018,10,0,64.417,64.417,-67.7342,-42.704,989.3,-2.14,-999.0,yes,yes,no,300234063800040,BD2GI,AOML,USN_SURVEY,South
2018-03-05T10:59:31Z,1520247571,2018,11,0,64.458,64.458,-67.6058,-42.9736,989.6,-3.0,-999.0,yes,yes,no,300234063800040,BD2GI,AOML,USN_SURVEY,South
2018-03-05T12:00:00Z,1520251200,2018,12,0,64.5,64.5,-67.4764,-43.2414,989.9,-3.35,-999.0,yes,yes,no,300234063800040,BD2GI,AOML,USN_SURVEY,South
2018-03-05T13:00:28Z,1520254829,2018,13,0,64.542,64.542,-67.3464,-43.5094,990.0,-3.86,-999.0,yes,yes,no,300234063800040,BD2GI,AOML,USN_SURVEY,South
2018-03-05T13:59:31Z,1520258371,2018,14,0,64.583,64.583,-67.2182,-43.7732,990.2,-3.65,-999.0,yes,yes,no,300234063800040,BD2GI,AOML,USN_SURVEY,South
2018-03-05T15:00:00Z,1520262000,2018,15,0,64.625,64.625,-67.1272,-43.96,990.1,-3.83,-999.0,yes,yes,no,300234063800040,BD2GI,AOML,USN_SURVEY,South
2018-03-05T16:00:28Z,1520265629,2018,16,0,64.667,64.667,-66.997,-44.2234,990.0,-3.74,-999.0,yes,yes,no,300234063800040,BD2GI,AOML,USN_SURVEY,South
2018-03-05T16:59:31Z,1520269171,2018,17,0,64.708,64.708,-66.8726,-44.4768,989.8,-3.64,-999.0,yes,yes,no,300234063800040,BD2GI,AOML,USN_SURVEY,South
2018-03-05T18:00:00Z,1520272800,2018,18,0,64.75,64.75,-66.7388,-44.7462,989.4,-3.25,-999.0,yes,yes,no,300234063800040,BD2GI,AOML,USN_SURVEY,South
2018-03-05T19:00:28Z,1520276429,2018,19,0,64.792,64.792,-66.598,-44.9858,989.0,-3.2,-999.0,yes,yes,no,300234063800040,BD2GI,AOML,USN_SURVEY,South
2018-03-05T19:59:31Z,1520279971,2018,20,0,64.833,64.833,-66.449,-45.1848,988.4,-2.87,-999.0,yes,yes,no,300234063800040,BD2GI,AOML,USN_SURVEY,South
2018-03-05T21:00:00Z,1520283600,2018,21,0,64.875,64.875,-66.2988,-45.3842,987.8,-2.55,-999.0,yes,yes,no,300234063800040,BD2GI,AOML,USN_SURVEY,South
2018-03-05T22:00:28Z,1520287229,2018,22,0,64.917,64.917,-66.1486,-45.5814,987.0,-2.66,-999.0,yes,yes,no,300234063800040,BD2GI,AOML,USN_SURVEY,South
2018-03-05T22:59:31Z,1520290771,2018,23,0,64.958,64.958,-65.9992,-45.7764,986.1,-2.37,-999.0,yes,yes,no,300234063800040,BD2GI,AOML,USN_SURVEY,South
2018-03-06T00:00:00Z,1520294400,2018,0,0,65.0,65.0,-65.8498,-45.971,985.3,-1.96,-999.0,yes,yes,no,300234063800040,BD2GI,AOML,USN_SURVEY,South
2018-03-06T01:00:28Z,1520298029,2018,1,0,65.042,65.042,-65.7044,-46.1598,984.0,-1.49,-999.0,yes,yes,no,300234063800040,BD2GI,AOML,USN_SURVEY,South
2018-03-06T01:59:31Z,1520301571,2018,2,0,65.083,65.083,-65.5578,-46.3492,982.8,-1.23,-999.0,yes,yes,no,300234063800040,BD2GI,AOML,USN_SURVEY,South
2018-03-06T03:00:00Z,1520305200,2018,3,0,65.125,65.125,-65.4148,-46.5314,981.9,-1.48,-999.0,yes,yes,no,300234063800040,BD2GI,AOML,USN_SURVEY,South
2018-03-06T04:00:28Z,1520308829,2018,4,0,65.167,65.167,-65.2676,-46.718,980.8,-1.27,-999.0,yes,yes,no,300234063800040,BD2GI,AOML,USN_SURVEY,South
2018-03-06T04:59:31Z,1520312371,2018,5,0,65.208,65.208,-65.1184,-46.9068,979.9,-1.09,-999.0,yes,yes,no,300234063800040,BD2GI,AOML,USN_SURVEY,South
2018-03-06T06:00:00Z,1520316000,2018,6,0,65.25,65.25,-64.9722,-47.0914,979.1,-1.0,-999.0,yes,yes,no,300234063800040,BD2GI,AOML,USN_SURVEY,South
2018-03-06T07:00:28Z,1520319629,2018,7,0,65.292,65.292,-64.824,-47.2764,978.3,-0.99,-999.0,yes,yes,no,300234063800040,BD2GI,AOML,USN_SURVEY,South
2018-03-06T07:59:31Z,1520323171,2018,8,0,65.333,65.333,-64.6958,-47.4416,977.8,-0.92,-999.0,yes,yes,no,300234063800040,BD2GI,AOML,USN_SURVEY,South
2018-03-06T09:00:00Z,1520326800,2018,9,0,65.375,65.375,-64.5656,-47.609,977.1,-0.89,-999.0,yes,yes,no,300234063800040,BD2GI,AOML,USN_SURVEY,South
2018-03-06T10:00:28Z,1520330429,2018,10,0,65.417,65.417,-64.4386,-47.7542,976.9,-0.4,-999.0,yes,yes,no,300234063800040,BD2GI,AOML,USN_SURVEY,South
2018-03-06T10:59:31Z,1520333971,2018,11,0,65.458,65.458,-64.3076,-47.9118,976.7,-0.37,-999.0,yes,yes,no,300234063800040,BD2GI,AOML,USN_SURVEY,South
2018-03-06T12:00:00Z,1520337600,2018,12,0,65.5,65.5,-64.1856,-48.0606,976.3,0.19,-999.0,yes,yes,no,300234063800040,BD2GI,AOML,USN_SURVEY,South
2018-03-06T13:00:28Z,1520341229,2018,13,0,65.542,65.542,-64.066,-48.2182,975.8,0.76,-999.0,yes,yes,no,300234063800040,BD2GI,AOML,USN_SURVEY,South
2018-03-06T13:59:31Z,1520344771,2018,14,0,65.583,65.583,-63.949,-48.3522,975.5,1.24,-999.0,yes,yes,no,300234063800040,BD2GI,AOML,USN_SURVEY,South
2018-03-06T15:00:00Z,1520348400,2018,15,0,65.625,65.625,-63.8288,-48.4956,974.9,1.75,-999.0,yes,yes,no,300234063800040,BD2GI,AOML,USN_SURVEY,South
2018-03-06T16:00:28Z,1520352029,2018,16,0,65.667,65.667,-63.712,-48.6298,974.7,-0.33,-999.0,yes,yes,no,300234063800040,BD2GI,AOML,USN_SURVEY,South
2018-03-06T16:59:31Z,1520355571,2018,17,0,65.708,65.708,-63.6004,-48.7732,974.8,-2.27,-999.0,yes,yes,no,300234063800040,BD2GI,AOML,USN_SURVEY,South
2018-03-06T18:00:00Z,1520359200,2018,18,0,65.75,65.75,-63.5952,-48.7534,974.5,-1.91,-999.0,yes,yes,no,300234063800040,BD2GI,AOML,USN_SURVEY,South
2018-03-06T19:00:28Z,1520362829,2018,19,0,65.792,65.792,-63.5822,-48.74,974.3,-2.67,-999.0,yes,yes,no,300234063800040,BD2GI,AOML,USN_SURVEY,South
2018-03-06T19:59:31Z,1520366371,2018,20,0,65.833,65.833,-63.5646,-48.7372,974.5,-3.51,-999.0,yes,yes,no,300234063800040,BD2GI,AOML,USN_SURVEY,South
2018-03-06T21:00:00Z,1520370000,2018,21,0,65.875,65.875,-63.5444,-48.746,974.7,-3.91,-999.0,yes,yes,no,300234063800040,BD2GI,AOML,USN_SURVEY,South
2018-03-06T22:00:28Z,1520373629,2018,22,0,65.917,65.917,-63.5266,-48.7678,975.6,-4.42,-999.0,yes,yes,no,300234063800040,BD2GI,AOML,USN_SURVEY,South
2018-03-06T22:59:31Z,1520377171,2018,23,0,65.958,65.958,-63.5108,-48.796,974.6,-5.0,-999.0,yes,yes,no,300234063800040,BD2GI,AOML,USN_SURVEY,South
2018-03-07T00:00:00Z,1520380800,2018,0,0,66.0,66.0,-63.5194,-48.9718,977.1,-5.0,-999.0,yes,yes,no,300234063800040,BD2GI,AOML,USN_SURVEY,South
2018-03-07T01:00:28Z,1520384429,2018,1,0,66.042,66.042,-63.5114,-49.0044,979.3,-1.54,-999.0,yes,yes,no,300234063800040,BD2GI,AOML,USN_SURVEY,South
2018-03-07T01:59:31Z,1520387971,2018,2,0,66.083,66.083,-63.5048,-49.025,980.4,-1.55,-999.0,yes,yes,no,300234063800040,BD2GI,AOML,USN_SURVEY,South
2018-03-07T03:00:00Z,1520391600,2018,3,0,66.125,66.125,-63.5014,-49.0358,981.5,-1.57,-999.0,yes,yes,no,300234063800040,BD2GI,AOML,USN_SURVEY,South
2018-03-07T04:00:28Z,1520395229,2018,4,0,66.167,66.167,-63.4978,-49.0338,982.6,-1.6,-999.0,yes,yes,no,300234063800040,BD2GI,AOML,USN_SURVEY,South
2018-03-07T04:59:31Z,1520398771,2018,5,0,66.208,66.208,-63.4906,-49.0246,983.5,-1.6,-999.0,yes,yes,no,300234063800040,BD2GI,AOML,USN_SURVEY,South
2018-03-07T06:00:00Z,1520402400,2018,6,0,66.25,66.25,-63.481,-49.0138,984.6,-1.55,-999.0,yes,yes,no,300234063800040,BD2GI,AOML,USN_SURVEY,South
2018-03-07T07:00:28Z,1520406029,2018,7,0,66.292,66.292,-63.469,-48.9978,985.7,-1.59,-999.0,yes,yes,no,300234063800040,BD2GI,AOML,USN_SURVEY,South
2018-03-07T07:59:31Z,1520409571,2018,8,0,66.333,66.333,-63.4552,-48.9872,986.5,-1.58,-999.0,yes,yes,no,300234063800040,BD2GI,AOML,USN_SURVEY,South
2018-03-07T09:00:00Z,1520413200,2018,9,0,66.375,66.375,-63.4426,-48.9814,987.5,-1.57,-999.0,yes,yes,no,300234063800040,BD2GI,AOML,USN_SURVEY,South
2018-03-07T10:00:28Z,1520416829,2018,10,0,66.417,66.417,-63.4298,-48.9746,988.2,-1.6,-999.0,yes,yes,no,300234063800040,BD2GI,AOML,USN_SURVEY,South
2018-03-07T10:59:31Z,1520420371,2018,11,0,66.458,66.458,-63.4178,-48.969,988.6,-1.56,-999.0,yes,yes,no,300234063800040,BD2GI,AOML,USN_SURVEY,South
2018-03-07T12:00:00Z,1520424000,2018,12,0,66.5,66.5,-63.4062,-48.9642,988.8,-1.57,-999.0,yes,yes,no,300234063800040,BD2GI,AOML,USN_SURVEY,South
2018-03-07T13:00:28Z,1520427629,2018,13,0,66.542,66.542,-63.395,-48.9586,989.3,-1.57,-999.0,yes,yes,no,300234063800040,BD2GI,AOML,USN_SURVEY,South
2018-03-07T13:59:31Z,1520431171,2018,14,0,66.583,66.583,-63.3854,-48.9508,989.8,-1.6,-999.0,yes,yes,no,300234063800040,BD2GI,AOML,USN_SURVEY,South
2018-03-07T15:00:00Z,1520434800,2018,15,0,66.625,66.625,-63.3772,-48.9408,990.6,-1.59,-999.0,yes,yes,no,300234063800040,BD2GI,AOML,USN_SURVEY,South
2018-03-07T16:00:28Z,1520438429,2018,16,0,66.667,66.667,-63.37,-48.928,990.7,-1.56,-999.0,yes,yes,no,300234063800040,BD2GI,AOML,USN_SURVEY,South
2018-03-07T16:59:31Z,1520441971,2018,17,0,66.708,66.708,-63.3624,-48.9162,990.9,-1.55,-999.0,yes,yes,no,300234063800040,BD2GI,AOML,USN_SURVEY,South
2018-03-07T18:00:00Z,1520445600,2018,18,0,66.75,66.75,-63.3544,-48.9046,990.9,-1.53,-999.0,yes,yes,no,300234063800040,BD2GI,AOML,USN_SURVEY,South
2018-03-07T19:00:28Z,1520449229,2018,19,0,66.792,66.792,-63.3458,-48.8992,991.4,-1.54,-999.0,yes,yes,no,300234063800040,BD2GI,AOML,USN_SURVEY,South
2018-03-07T19:59:31Z,1520452771,2018,20,0,66.833,66.833,-63.341,-48.897,991.6,-1.55,-999.0,yes,yes,no,300234063800040,BD2GI,AOML,USN_SURVEY,South
2018-03-07T21:00:00Z,1520456400,2018,21,0,66.875,66.875,-63.3356,-48.8956,991.1,-1.58,-999.0,yes,yes,no,300234063800040,BD2GI,AOML,USN_SURVEY,South
2018-03-07T22:00:28Z,1520460029,2018,22,0,66.917,66.917,-63.331,-48.8944,990.8,-1.57,-999.0,yes,yes,no,300234063800040,BD2GI,AOML,USN_SURVEY,South
2018-03-07T22:59:31Z,1520463571,2018,23,0,66.958,66.958,-63.327,-48.8926,990.3,-1.6,-999.0,yes,yes,no,300234063800040,BD2GI,AOML,USN_SURVEY,South
2018-03-08T00:00:00Z,1520467200,2018,0,0,67.0,67.0,-63.3238,-48.8922,990.2,-1.6,-999.0,yes,yes,no,300234063800040,BD2GI,AOML,USN_SURVEY,South
2018-03-08T01:00:28Z,1520470829,2018,1,0,67.042,67.042,-63.321,-48.89,989.5,-1.6,-999.0,yes,yes,no,300234063800040,BD2GI,AOML,USN_SURVEY,South
2018-03-08T01:59:31Z,1520474371,2018,2,0,67.083,67.083,-63.3186,-48.8894,988.9,-1.62,-999.0,yes,yes,no,300234063800040,BD2GI,AOML,USN_SURVEY,South
2018-03-08T03:00:00Z,1520478000,2018,3,0,67.125,67.125,-63.3152,-48.8876,988.6,-1.58,-999.0,yes,yes,no,300234063800040,BD2GI,AOML,USN_SURVEY,South
2018-03-08T04:00:28Z,1520481629,2018,4,0,67.167,67.167,-63.3132,-48.8856,987.9,-1.58,-999.0,yes,yes,no,300234063800040,BD2GI,AOML,USN_SURVEY,South
2018-03-08T04:59:31Z,1520485171,2018,5,0,67.208,67.208,-63.3128,-48.8846,987.6,-1.59,-999.0,yes,yes,no,300234063800040,BD2GI,AOML,USN_SURVEY,South
2018-03-08T06:00:00Z,1520488800,2018,6,0,67.25,67.25,-63.3146,-48.882,987.4,-1.61,-999.0,yes,yes,no,300234063800040,BD2GI,AOML,USN_SURVEY,South
2018-03-08T07:00:28Z,1520492429,2018,7,0,67.292,67.292,-63.3136,-48.8714,987.4,-1.58,-999.0,yes,yes,no,300234063800040,BD2GI,AOML,USN_SURVEY,South
2018-03-08T07:59:31Z,1520495971,2018,8,0,67.333,67.333,-63.31,-48.8648,987.6,-1.59,-999.0,yes,yes,no,300234063800040,BD2GI,AOML,USN_SURVEY,South
2018-03-08T09:00:00Z,1520499600,2018,9,0,67.375,67.375,-63.3038,-48.861,988.0,-1.59,-999.0,yes,yes,no,300234063800040,BD2GI,AOML,USN_SURVEY,South
2018-03-08T10:00:28Z,1520503229,2018,10,0,67.417,67.417,-63.2994,-48.8646,988.3,-1.59,-999.0,yes,yes,no,300234063800040,BD2GI,AOML,USN_SURVEY,South
2018-03-08T10:59:31Z,1520506771,2018,11,0,67.458,67.458,-63.2956,-48.8728,988.6,-1.6,-999.0,yes,yes,no,300234063800040,BD2GI,AOML,USN_SURVEY,South
2018-03-08T12:00:00Z,1520510400,2018,12,0,67.5,67.5,-63.293,-48.8802,989.0,-1.57,-999.0,yes,yes,no,300234063800040,BD2GI,AOML,USN_SURVEY,South
2018-03-08T13:00:28Z,1520514029,2018,13,0,67.542,67.542,-63.2924,-48.8854,989.2,-1.6,-999.0,yes,yes,no,300234063800040,BD2GI,AOML,USN_SURVEY,South
2018-03-08T13:59:31Z,1520517571,2018,14,0,67.583,67.583,-63.2938,-48.8786,989.9,-1.58,-999.0,yes,yes,no,300234063800040,BD2GI,AOML,USN_SURVEY,South
2018-03-08T15:00:00Z,1520521200,2018,15,0,67.625,67.625,-63.291,-48.867,990.3,-1.54,-999.0,yes,yes,no,300234063800040,BD2GI,AOML,USN_SURVEY,South
2018-03-08T16:00:28Z,1520524829,2018,16,0,67.667,67.667,-63.287,-48.8548,990.7,-1.55,-999.0,yes,yes,no,300234063800040,BD2GI,AOML,USN_SURVEY,South
2018-03-08T16:59:31Z,1520528371,2018,17,0,67.708,67.708,-63.2816,-48.8412,990.8,-1.51,-999.0,yes,yes,no,300234063800040,BD2GI,AOML,USN_SURVEY,South
2018-03-08T18:00:00Z,1520532000,2018,18,0,67.75,67.75,-63.2784,-48.8348,991.0,-1.51,-999.0,yes,yes,no,300234063800040,BD2GI,AOML,USN_SURVEY,South
2018-03-08T19:00:28Z,1520535629,2018,19,0,67.792,67.792,-63.272,-48.8258,991.1,-1.53,-999.0,yes,yes,no,300234063800040,BD2GI,AOML,USN_SURVEY,South
2018-03-08T19:59:31Z,1520539171,2018,20,0,67.833,67.833,-63.266,-48.8162,991.1,-1.55,-999.0,yes,yes,no,300234063800040,BD2GI,AOML,USN_SURVEY,South
2018-03-08T21:00:00Z,1520542800,2018,21,0,67.875,67.875,-63.26,-48.8106,991.2,-1.56,-999.0,yes,yes,no,300234063800040,BD2GI,AOML,USN_SURVEY,South
2018-03-08T22:00:28Z,1520546429,2018,22,0,67.917,67.917,-63.255,-48.81,991.4,-1.57,-999.0,yes,yes,no,300234063800040,BD2GI,AOML,USN_SURVEY,South
2018-03-08T22:59:31Z,1520549971,2018,23,0,67.958,67.958,-63.2504,-48.8118,991.7,-1.58,-999.0,yes,yes,no,300234063800040,BD2GI,AOML,USN_SURVEY,South
2018-03-09T00:00:00Z,1520553600,2018,0,0,68.0,68.0,-63.2476,-48.8098,991.8,-1.59,-999.0,yes,yes,no,300234063800040,BD2GI,AOML,USN_SURVEY,South
2018-03-09T01:00:28Z,1520557229,2018,1,0,68.042,68.042,-63.247,-48.8018,992.3,-1.59,-999.0,yes,yes,no,300234063800040,BD2GI,AOML,USN_SURVEY,South
2018-03-09T01:59:31Z,1520560771,2018,2,0,68.083,68.083,-63.2424,-48.7882,992.8,-1.62,-999.0,yes,yes,no,300234063800040,BD2GI,AOML,USN_SURVEY,South
2018-03-09T03:00:00Z,1520564400,2018,3,0,68.125,68.125,-63.2336,-48.7794,993.3,-1.61,-999.0,yes,yes,no,300234063800040,BD2GI,AOML,USN_SURVEY,South
2018-03-09T04:00:28Z,1520568029,2018,4,0,68.167,68.167,-63.224,-48.772,994.0,-1.58,-999.0,yes,yes,no,300234063800040,BD2GI,AOML,USN_SURVEY,South
2018-03-09T04:59:31Z,1520571571,2018,5,0,68.208,68.208,-63.2138,-48.7664,994.4,-1.61,-999.0,yes,yes,no,300234063800040,BD2GI,AOML,USN_SURVEY,South
2018-03-09T06:00:00Z,1520575200,2018,6,0,68.25,68.25,-63.204,-48.767,995.1,-1.59,-999.0,yes,yes,no,300234063800040,BD2GI,AOML,USN_SURVEY,South
2018-03-09T07:00:28Z,1520578829,2018,7,0,68.292,68.292,-63.195,-48.771,995.8,-1.58,-999.0,yes,yes,no,300234063800040,BD2GI,AOML,USN_SURVEY,South
2018-03-09T07:59:31Z,1520582371,2018,8,0,68.333,68.333,-63.1884,-48.7714,996.7,-1.57,-999.0,yes,yes,no,300234063800040,BD2GI,AOML,USN_SURVEY,South
2018-03-09T09:00:00Z,1520586000,2018,9,0,68.375,68.375,-63.1828,-48.7712,997.6,-1.57,-999.0,yes,yes,no,300234063800040,BD2GI,AOML,USN_SURVEY,South
2018-03-09T10:00:28Z,1520589629,2018,10,0,68.417,68.417,-63.1768,-48.7708,997.9,-1.57,-999.0,yes,yes,no,300234063800040,BD2GI,AOML,USN_SURVEY,South
2018-03-09T10:59:31Z,1520593171,2018,11,0,68.458,68.458,-63.1734,-48.7738,998.6,-1.59,-999.0,yes,yes,no,300234063800040,BD2GI,AOML,USN_SURVEY,South
2018-03-09T12:00:00Z,1520596800,2018,12,0,68.5,68.5,-63.1722,-48.7726,999.3,-1.57,-999.0,yes,yes,no,300234063800040,BD2GI,AOML,USN_SURVEY,South
2018-03-09T13:00:28Z,1520600429,2018,13,0,68.542,68.542,-63.1712,-48.7564,999.2,-1.65,-999.0,yes,yes,no,300234063800040,BD2GI,AOML,USN_SURVEY,South
2018-03-09T13:59:31Z,1520603971,2018,14,0,68.583,68.583,-63.1674,-48.739,999.7,-1.56,-999.0,yes,yes,no,300234063800040,BD2GI,AOML,USN_SURVEY,South
2018-03-09T15:00:00Z,1520607600,2018,15,0,68.625,68.625,-63.162,-48.723,999.9,-1.58,-999.0,yes,yes,no,300234063800040,BD2GI,AOML,USN_SURVEY,South
2018-03-09T16:00:28Z,1520611229,2018,16,0,68.667,68.667,-63.1558,-48.7104,1000.0,-1.59,-999.0,yes,yes,no,300234063800040,BD2GI,AOML,USN_SURVEY,South
2018-03-09T16:59:31Z,1520614771,2018,17,0,68.708,68.708,-63.1478,-48.699,999.4,-1.58,-999.0,yes,yes,no,300234063800040,BD2GI,AOML,USN_SURVEY,South
2018-03-09T18:00:00Z,1520618400,2018,18,0,68.75,68.75,-63.1404,-48.695,999.6,-1.6,-999.0,yes,yes,no,300234063800040,BD2GI,AOML,USN_SURVEY,South
2018-03-09T19:00:28Z,1520622029,2018,19,0,68.792,68.792,-63.1354,-48.6926,999.2,-1.62,-999.0,yes,yes,no,300234063800040,BD2GI,AOML,USN_SURVEY,South
2018-03-09T19:59:31Z,1520625571,2018,20,0,68.833,68.833,-63.132,-48.6902,998.7,-1.59,-999.0,yes,yes,no,300234063800040,BD2GI,AOML,USN_SURVEY,South
2018-03-09T21:00:00Z,1520629200,2018,21,0,68.875,68.875,-63.1328,-48.6852,998.4,-1.57,-999.0,yes,yes,no,300234063800040,BD2GI,AOML,USN_SURVEY,South
2018-03-09T22:00:28Z,1520632829,2018,22,0,68.917,68.917,-63.1362,-48.6794,997.9,-1.62,-999.0,yes,yes,no,300234063800040,BD2GI,AOML,USN_SURVEY,South
2018-03-09T22:59:31Z,1520636371,2018,23,0,68.958,68.958,-63.138,-48.6702,997.6,-1.61,-999.0,yes,yes,no,300234063800040,BD2GI,AOML,USN_SURVEY,South
2018-03-10T00:00:00Z,1520640000,2018,0,0,69.0,69.0,-63.1378,-48.6514,997.6,-1.58,-999.0,yes,yes,no,300234063800040,BD2GI,AOML,USN_SURVEY,South
2018-03-10T01:00:28Z,1520643629,2018,1,0,69.042,69.042,-63.1352,-48.6254,997.6,-1.61,-999.0,yes,yes,no,300234063800040,BD2GI,AOML,USN_SURVEY,South
2018-03-10T01:59:31Z,1520647171,2018,2,0,69.083,69.083,-63.1286,-48.6034,997.3,-1.58,-999.0,yes,yes,no,300234063800040,BD2GI,AOML,USN_SURVEY,South
2018-03-10T03:00:00Z,1520650800,2018,3,0,69.125,69.125,-63.1208,-48.5834,997.4,-1.61,-999.0,yes,yes,no,300234063800040,BD2GI,AOML,USN_SURVEY,South
2018-03-10T04:00:28Z,1520654429,2018,4,0,69.167,69.167,-63.1116,-48.568,997.2,-1.68,-999.0,yes,yes,no,300234063800040,BD2GI,AOML,USN_SURVEY,South
2018-03-10T04:59:31Z,1520657971,2018,5,0,69.208,69.208,-63.1018,-48.5576,997.0,-1.59,-999.0,yes,yes,no,300234063800040,BD2GI,AOML,USN_SURVEY,South
2018-03-10T06:00:00Z,1520661600,2018,6,0,69.25,69.25,-63.0952,-48.5502,996.9,-1.59,-999.0,yes,yes,no,300234063800040,BD2GI,AOML,USN_SURVEY,South
2018-03-10T07:00:28Z,1520665229,2018,7,0,69.292,69.292,-63.0906,-48.5448,996.7,-1.66,-999.0,yes,yes,no,300234063800040,BD2GI,AOML,USN_SURVEY,South
2018-03-10T07:59:31Z,1520668771,2018,8,0,69.333,69.333,-63.0886,-48.5422,996.6,-1.59,-999.0,yes,yes,no,300234063800040,BD2GI,AOML,USN_SURVEY,South
2018-03-10T09:00:00Z,1520672400,2018,9,0,69.375,69.375,-63.0908,-48.5336,996.7,-1.61,-999.0,yes,yes,no,300234063800040,BD2GI,AOML,USN_SURVEY,South
2018-03-10T10:00:28Z,1520676029,2018,10,0,69.417,69.417,-63.0928,-48.5196,996.7,-1.59,-999.0,yes,yes,no,300234063800040,BD2GI,AOML,USN_SURVEY,South
2018-03-10T10:59:31Z,1520679571,2018,11,0,69.458,69.458,-63.0938,-48.4978,996.6,-1.61,-999.0,yes,yes,no,300234063800040,BD2GI,AOML,USN_SURVEY,South
2018-03-10T12:00:00Z,1520683200,2018,12,0,69.5,69.5,-63.0916,-48.468,996.7,-1.56,-999.0,yes,yes,no,300234063800040,BD2GI,AOML,USN_SURVEY,South
2018-03-10T13:00:28Z,1520686829,2018,13,0,69.542,69.542,-63.0866,-48.4408,996.7,-1.55,-999.0,yes,yes,no,300234063800040,BD2GI,AOML,USN_SURVEY,South
2018-03-10T13:59:31Z,1520690371,2018,14,0,69.583,69.583,-63.0776,-48.4198,996.7,-1.54,-999.0,yes,yes,no,300234063800040,BD2GI,AOML,USN_SURVEY,South
2018-03-10T15:00:00Z,1520694000,2018,15,0,69.625,69.625,-63.0678,-48.4052,996.6,-1.55,-999.0,yes,yes,no,300234063800040,BD2GI,AOML,USN_SURVEY,South
2018-03-10T16:00:28Z,1520697629,2018,16,0,69.667,69.667,-63.056,-48.3974,996.7,-1.55,-999.0,yes,yes,no,300234063800040,BD2GI,AOML,USN_SURVEY,South
2018-03-10T16:59:31Z,1520701171,2018,17,0,69.708,69.708,-63.0474,-48.402,996.8,-1.47,-999.0,yes,yes,no,300234063800040,BD2GI,AOML,USN_SURVEY,South
2018-03-10T18:00:00Z,1520704800,2018,18,0,69.75,69.75,-63.0416,-48.4076,997.1,-1.56,-999.0,yes,yes,no,300234063800040,BD2GI,AOML,USN_SURVEY,South
2018-03-10T19:00:28Z,1520708429,2018,19,0,69.792,69.792,-63.0388,-48.4136,997.3,-1.6,-999.0,yes,yes,no,300234063800040,BD2GI,AOML,USN_SURVEY,South
2018-03-10T19:59:31Z,1520711971,2018,20,0,69.833,69.833,-63.041,-48.4206,997.4,-1.58,-999.0,yes,yes,no,300234063800040,BD2GI,AOML,USN_SURVEY,South
2018-03-10T21:00:00Z,1520715600,2018,21,0,69.875,69.875,-63.0454,-48.4186,997.9,-1.59,-999.0,yes,yes,no,300234063800040,BD2GI,AOML,USN_SURVEY,South
2018-03-10T22:00:28Z,1520719229,2018,22,0,69.917,69.917,-63.0478,-48.4118,998.2,-1.6,-999.0,yes,yes,no,300234063800040,BD2GI,AOML,USN_SURVEY,South
2018-03-10T22:59:31Z,1520722771,2018,23,0,69.958,69.958,-63.049,-48.398,998.5,-1.58,-999.0,yes,yes,no,300234063800040,BD2GI,AOML,USN_SURVEY,South
2018-03-11T00:00:00Z,1520726400,2018,0,0,70.0,70.0,-63.0454,-48.384,999.0,-1.61,-999.0,yes,yes,no,300234063800040,BD2GI,AOML,USN_SURVEY,South
2018-03-11T01:00:28Z,1520730029,2018,1,0,70.042,70.042,-63.0406,-48.3678,999.2,-1.59,-999.0,yes,yes,no,300234063800040,BD2GI,AOML,USN_SURVEY,South
2018-03-11T01:59:31Z,1520733571,2018,2,0,70.083,70.083,-63.034,-48.3508,999.6,-1.63,-999.0,yes,yes,no,300234063800040,BD2GI,AOML,USN_SURVEY,South
2018-03-11T03:00:00Z,1520737200,2018,3,0,70.125,70.125,-63.0264,-48.3388,1000.0,-1.59,-999.0,yes,yes,no,300234063800040,BD2GI,AOML,USN_SURVEY,South
2018-03-11T04:00:28Z,1520740829,2018,4,0,70.167,70.167,-63.019,-48.3388,1000.4,-1.59,-999.0,yes,yes,no,300234063800040,BD2GI,AOML,USN_SURVEY,South
2018-03-11T04:59:31Z,1520744371,2018,5,0,70.208,70.208,-63.0124,-48.34,1000.7,-1.64,-999.0,yes,yes,no,300234063800040,BD2GI,AOML,USN_SURVEY,South
2018-03-11T06:00:00Z,1520748000,2018,6,0,70.25,70.25,-63.0058,-48.3436,1001.2,-1.62,-999.0,yes,yes,no,300234063800040,BD2GI,AOML,USN_SURVEY,South
2018-03-11T07:00:28Z,1520751629,2018,7,0,70.292,70.292,-63.002,-48.348,1001.9,-1.59,-999.0,yes,yes,no,300234063800040,BD2GI,AOML,USN_SURVEY,South